Back to catalog

GEESAT 3-06

AliveScienceLEO
NORAD 61016·PAYLOAD·🇨🇳 China

Launched Sep 5, 2024 from Taiyuan Satellite Launch Center

Loading…

Next Passes (next 24 hours)

TLE

FreshSource: Space-Track

Epoch: Sep 14, 2026, 13:53 UTC

1 61016U 24159F   26257.57912933  .00001430  00000-0  19471-3 0  9999
2 61016  49.9992  28.6178 0016161  62.3311 297.9266 14.84496487110043

Track GEESAT 3-06 in real time with AllMySat

Download on the App Store